METEOR 2-11 DEB

Satellite information

Favourite Embed

Satellite Type and Status

DEBRISIN ORBIT

Key statistics

Satellite METEOR 2-11 DEB at a glance.

Uptime

14977

Days in orbit

Revolutions

≈ 13.9

Per day

Orbit

LEO

Low Earth Orbit

Inclination

82.5

Latest

Satellite identification and parameters

Extended collection of information and parameters for METEOR 2-11 DEB.

Object identification

Identified? True

Debris? True

Object name: METEOR 2-11 DEB

International designator: 1984-072T

Object number (NORAD): 42457

Object ID (CCSDS): 42457

Country: COMMONWEALTH OF INDEPENDENT STATES (CIS)

Current information (Y/N): Y

RCS size: SMALL

Orbital parameters

Period: 103.362 minutes

Inclination: 82.532 deg

SMA: 7295.723 km

Apoapsis: 930.626 km

Periapsis: 904.549 km

RAAN: 305.5988 deg

Eccentricy: 0.0017871

Argument of periapsis: 334.0487 deg

Mean anomaly: 25.9781 deg

Mean motion: 13.93157737 rev/day

Mean motion (dot): 0.00000259 rev/day2

B* drag term: 0.00018754 1/REarth

Two-line elements (TLE)

Creation date: July 6, 2025, 6:05 p.m.

Reference frame: TEME

Reference center: EARTH

Epoch: July 6, 2025, 12:54 a.m. UTC

TLE line 0: 0 METEOR 2-11 DEB

TLE line 1: 1 42457U 84072T 25187.03798929 .00000259 00000-0 18754-3 0 9997

TLE line 2: 2 42457 82.5320 305.5988 0017871 334.0487 25.9781 13.93157737432440

Live tracking on map

Real-time ground track for satellite METEOR 2-11 DEB.

In-orbit conjunctions

A list of the most updated potential collisions computed for object METEOR 2-11 DEB.

Target Orbit TCA Probability of collision Miss distance Type
COSMOS 1275 DEB LEO 2024-09-27 11:45:25 0.0005174199 324.0 (m) DEBRIS

Associated space launch

Second generation soviet meteorological satellite

METEOR 2-11 DEB was lifted into orbit during the mission ‘Tsiklon-3 | Meteor-2 11’, on board a Tsiklon-3 space rocket.

The launch took place on July 5, 1984, 3:35 a.m. from 32/2.

For more information about the launch, click the button.

Launch to space Tsiklon-3 | Meteor-2 11
Tsiklon-3 | Meteor-2 11

Agency: N/A

Status: Launch Successful

Launch date: July 5, 1984, 3:35 a.m. UTC

Rocket: Tsiklon-3

Launch pad: 32/2

Location: Plesetsk Cosmodrome, Russian Federation

...

Latest news about this satellite

There are no fresh news available about this satellite. Check back as we update our databases every day.


Newsletter sign-up

Weekly statistics, charts and insights to help you stay on top of the space industry.